Stations météo

Publicité
Nimes-Garons, France (7646): Température de l'air & dewpoint: 09.11.2019 16:00:00 - 15.11.2019 16:00:00 (CET)Nimes-Garons, France (7646): Vitesse du vent & gusts: 09.11.2019 16:00:00 - 15.11.2019 16:00:00 (CET)Nimes-Garons, France (7646): Direction du vent: 09.11.2019 16:00:00 - 15.11.2019 16:00:00 (CET)Nimes-Garons, France (7646): reduced air pressure: 09.11.2019 16:00:00 - 15.11.2019 16:00:00 (CET)Nimes-Garons, France (7646): visibility: 09.11.2019 16:00:00 - 15.11.2019 16:00:00 (CET)Nimes-Garons, France (7646): Quantités de précipitations: 09.11.2019 16:00:00 - 15.11.2019 16:00:00 (CET)
Date & Time tt [°C] td [°C] ff [km/h] ff [knt] fx [km/h] fx [knt] dd ppp [hPa] vv [km] rr [mm]
15.11.2019 16:00:00 6,8 5,1 12 7 18 10 ENE 1000,7 29 0,0
15.11.2019 15:00:00 6,9 4,9 10 5 23 12 ENE 1000,5 37 0,0
15.11.2019 14:00:00 7,6 5,4 11 6 19 10 NE 1000,7 45 0,0
15.11.2019 13:00:00 7,8 5,4 9 5 21 11 NNE 1001,0 60 0,0
15.11.2019 12:00:00 6,1 5,2 11 6 22 12 N 1002,0 28 0,0
15.11.2019 11:00:00 3,8 3,7 13 7 20 11 NNW 1002,7 13 0,0
15.11.2019 10:00:00 2,9 2,8 9 5 14 8 N 1002,2 8 0,0
15.11.2019 09:00:00 1,5 1,4 6 3 9 5 NNE 1002,2 0,5 0,0
15.11.2019 08:00:00 0,7 0,6 5 3 9 5 NE 1001,6 0,3 0,0
15.11.2019 07:00:00 1,5 1,4 6 4 8 5 E 1001,6 10 0,0
15.11.2019 06:00:00 1,4 1,3 9 5 13 7 ENE 1000,8 16 0,0
15.11.2019 05:00:00 1,8 1,7 10 5 18 10 ESE 1000,5 0,2 0,0
15.11.2019 04:00:00 2,2 1,9 8 5 11 6 ESE 1000,1 15 0,0
15.11.2019 03:00:00 1,9 1,5 6 4 8 5 SSE 999,4 29 0,0
15.11.2019 02:00:00 2,1 1,5 5 3 16 9 SSW 998,7 15 0,0
15.11.2019 01:00:00 3,2 2,8 10 5 16 9 W 998,5 49 0,0
15.11.2019 00:00:00 3,8 3,2 6 3 14 8 NW 997,7 60 0,0
14.11.2019 23:00:00 3,9 3,3 10 5 24 13 NW 997,2 60 0,0
14.11.2019 22:00:00 4,4 3,7 16 8 34 18 N 996,9 60 0,2
14.11.2019 21:00:00 4,1 3,5 20 11 39 21 NNW 997,4 2,1 0,2
14.11.2019 20:00:00 4,2 3,8 19 10 35 19 NW 995,8 60 0,0
14.11.2019 19:00:00 4,9 4,6 10 6 24 13 W 995,8 34 0,2
14.11.2019 18:00:00 5,3 5,0 12 6 23 12 NNW 995,5 19 1,0
14.11.2019 17:00:00 5,2 4,9 15 8 26 14 NW 995,9 7 3,2
14.11.2019 16:00:00 5,8 5,5 13 7 20 11 NW 995,7 5 1,0
14.11.2019 15:00:00 8,6 8,3 12 7 25 13 ESE 995,7 19 0,6
14.11.2019 14:00:00 6,4 6,3 9 5 20 11 N 996,6 8 3,8
14.11.2019 13:00:00 5,6 5,2 11 6 23 13 NNW 997,8 14 0,2
14.11.2019 12:00:00 6,2 5,8 12 7 23 12 NW 998,4 15 0,0
14.11.2019 11:00:00 7,2 6,8 10 5 29 16 NE 998,9 20 8,8
14.11.2019 10:00:00 5,6 5,3 10 5 31 17 NE 999,4 1,4 17,5
14.11.2019 09:00:00 4,2 3,5 14 8 23 13 NNE 999,9 3,5 2,0
14.11.2019 08:00:00 3,9 2,4 13 7 25 14 NE 1001,3 19 1,0
14.11.2019 07:00:00 4,7 1,0 10 5 24 13 ENE 1002,4 29 0,0
14.11.2019 06:00:00 4,4 1,2 8 4 27 14 ENE 1003,2 45 0,0
14.11.2019 05:00:00 3,7 1,2 10 6 16 9 E 1003,5 26 0,0
14.11.2019 04:00:00 3,2 0,3 7 4 13 7 E 1004,4 13 0,0
14.11.2019 03:00:00 2,1 -0,7 5 3 9 5 SE 1005,7 45 0,0
14.11.2019 02:00:00 2,7 -1,1 4 2 8 4 WSW 1005,7 60 0,0
14.11.2019 01:00:00 2,5 -0,9 4 2 9 5 WNW 1006,5 60 0,0
14.11.2019 00:00:00 2,9 -0,7 6 3 9 5 N 1006,3 59 0,0
13.11.2019 23:00:00 3,6 -0,8 7 4 10 5 SSE 1007,8 60 0,0
13.11.2019 22:00:00 5,3 0,1 5 3 16 9 WNW 1008,3 60 0,0
13.11.2019 21:00:00 5,1 0,3 9 5 15 8 NNW 1008,2 60 0,0
13.11.2019 20:00:00 6,0 1,5 4 2 13 7 SW 1008,0 56 0,0
13.11.2019 19:00:00 5,9 1,6 9 5 19 10 NNW 1007,9 60 0,0
13.11.2019 18:00:00 7,8 2,0 11 6 17 9 NNE 1006,9 60 0,0
13.11.2019 17:00:00 10,4 -0,7 8 4 32 17 NNW 1006,3 60 0,0
13.11.2019 16:00:00 12,6 -1,4 18 10 37 20 NNW 1006,0 60 0,0
13.11.2019 15:00:00 12,9 -2,2 21 11 41 22 NNW 1005,7 58 0,0
13.11.2019 14:00:00 12,3 -0,6 21 11 50 27 NW 1005,4 56 0,0
13.11.2019 13:00:00 12,2 0,3 27 15 46 25 N 1005,2 58 0,0
13.11.2019 12:00:00 11,1 -0,1 22 12 41 22 NNW 1006,0 60 0,0
13.11.2019 11:00:00 8,9 0,3 19 11 35 19 NNW 1006,2 60 0,0
13.11.2019 10:00:00 9,0 2,3 18 10 30 16 N 1005,9 60 0,0
13.11.2019 09:00:00 6,3 2,0 16 8 23 12 N 1005,7 58 0,0
13.11.2019 08:00:00 3,8 1,7 10 5 16 8 WNW 1005,7 56 0,0
13.11.2019 07:00:00 2,9 0,5 7 4 14 8 NNW 1005,1 60 0,0
13.11.2019 06:00:00 3,0 0,4 8 5 16 9 NNW 1005,0 60 0,0
13.11.2019 05:00:00 3,5 0,9 8 4 16 9 NNW 1004,4 60 0,0
13.11.2019 04:00:00 5,5 2,1 10 5 17 9 W 1004,0 60 0,0
13.11.2019 03:00:00 6,2 2,5 9 5 17 9 WNW 1004,3 60 0,0
13.11.2019 02:00:00 6,2 2,6 9 5 15 8 NW 1004,4 60 0,0
13.11.2019 01:00:00 5,7 1,6 8 4 16 9 WNW 1004,5 60 0,0
13.11.2019 00:00:00 5,6 1,7 8 5 16 9 W 1004,4 60 0,0
12.11.2019 23:00:00 5,7 1,4 9 5 16 9 WNW 1004,8 60 0,0
12.11.2019 22:00:00 6,5 2,0 10 6 16 9 NW 1005,2 60 0,0
12.11.2019 21:00:00 6,8 1,9 11 6 18 10 NW 1005,3 60 0,0
12.11.2019 20:00:00 6,5 2,0 10 5 16 9 NNW 1005,9 60 0,0
12.11.2019 19:00:00 7,9 1,7 6 3 22 12 NW 1005,8 60 0,0
12.11.2019 18:00:00 10,7 1,2 13 7 41 22 NW 1005,2 60 0,0
12.11.2019 17:00:00 12,9 0,9 21 11 49 26 NNW 1004,9 59 0,0
12.11.2019 16:00:00 14,5 1,7 25 14 51 27 N 1004,3 60 0,0
12.11.2019 15:00:00 14,7 0,9 28 15 52 28 NNW 1004,5 60 0,0
12.11.2019 14:00:00 14,2 1,8 19 11 37 20 NW 1005,1 60 0,0
12.11.2019 13:00:00 13,4 1,7 20 11 39 21 NNW 1006,6 60 0,0
12.11.2019 12:00:00 12,5 1,8 21 11 35 19 NNW 1008,4 60 0,0
12.11.2019 11:00:00 11,1 1,3 23 12 42 23 N 1009,6 60 0,0
12.11.2019 10:00:00 9,7 0,8 26 14 42 23 N 1009,8 60 0,0
12.11.2019 09:00:00 7,7 0,6 18 10 31 17 N 1010,0 60 0,0
12.11.2019 08:00:00 5,2 -0,2 15 8 31 17 NW 1009,5 60 0,0
12.11.2019 07:00:00 5,8 -0,5 16 9 29 16 NW 1009,9 60 0,0
12.11.2019 06:00:00 5,3 -0,1 15 8 23 12 NW 1010,0 60 0,0
12.11.2019 05:00:00 4,3 0,1 9 5 28 15 NNW 1010,3 60 0,0
12.11.2019 04:00:00 5,3 0,8 9 5 29 15 N 1010,7 60 0,0
12.11.2019 03:00:00 7,1 1,8 18 10 30 16 NNW 1010,9 60 0,0
12.11.2019 02:00:00 5,8 2,1 9 5 21 12 N 1011,1 60 0,0
12.11.2019 01:00:00 7,9 3,5 14 7 28 15 N 1011,1 60 0,0
12.11.2019 00:00:00 9,6 4,2 11 6 29 15 NNE 1010,5 60 0,0
11.11.2019 23:00:00 10,0 4,8 12 7 23 12 NW 1010,1 60 0,0
11.11.2019 22:00:00 8,9 3,9 10 6 22 12 NW 1009,9 60 0,0
11.11.2019 21:00:00 6,8 3,0 6 3 14 8 N 1010,0 60 0,0
11.11.2019 20:00:00 7,5 3,0 8 5 17 9 NW 1009,9 51 0,0
11.11.2019 19:00:00 7,6 3,1 7 4 13 7 NNW 1009,5 60 0,0
11.11.2019 18:00:00 8,6 3,4 2 1 11 6 N 1009,2 60 0,0
11.11.2019 17:00:00 12,1 3,3 5 3 15 8 NNE 1008,8 60 0,0
11.11.2019 16:00:00 13,9 2,5 8 5 22 12 N 1008,9 60 0,0
11.11.2019 15:00:00 14,1 1,7 11 6 24 13 N 1009,0 60 0,0
11.11.2019 14:00:00 13,2 1,2 11 6 26 14 NNW 1009,5 60 0,0
11.11.2019 13:00:00 12,4 2,8 16 8 29 15 NNW 1010,3 60 0,0
11.11.2019 12:00:00 13,0 3,4 18 10 29 15 NNW 1011,1 60 0,0
11.11.2019 11:00:00 11,1 2,6 19 10 30 16 NNW 1012,1 60 0,0
11.11.2019 10:00:00 10,1 2,4 15 8 27 15 NNW 1012,4 59 0,0
11.11.2019 09:00:00 9,3 1,7 11 6 27 15 N 1012,4 60 0,0
11.11.2019 08:00:00 8,6 1,3 16 8 32 17 NNW 1012,9 60 0,0
11.11.2019 07:00:00 8,6 2,2 13 7 26 14 NNW 1012,7 60 0,0
11.11.2019 06:00:00 8,6 1,9 14 7 25 13 N 1012,7 60 0,0
11.11.2019 05:00:00 8,4 1,5 11 6 26 14 N 1012,6 60 0,0
11.11.2019 04:00:00 8,9 1,5 15 8 26 14 N 1012,8 60 0,0
11.11.2019 03:00:00 9,2 1,4 16 8 34 19 N 1013,0 60 0,0
11.11.2019 02:00:00 8,9 1,8 19 10 40 21 N 1012,6 60 0,0
11.11.2019 01:00:00 8,6 1,9 21 11 37 20 NNW 1011,8 60 0,0
11.11.2019 00:00:00 8,5 2,1 20 11 34 18 N 1011,7 60 0,0
10.11.2019 23:00:00 8,4 2,0 22 12 39 21 N 1011,9 60 0,0
10.11.2019 22:00:00 8,8 2,4 21 12 40 21 N 1011,7 60 0,0
10.11.2019 21:00:00 9,1 2,6 22 12 47 26 N 1011,2 60 0,0
10.11.2019 20:00:00 9,5 2,8 29 16 49 27 N 1011,2 60 0,0
10.11.2019 19:00:00 9,6 3,3 19 11 36 19 N 1011,2 60 0,0
10.11.2019 18:00:00 9,9 3,0 21 11 36 20 N 1010,1 60 0,0
10.11.2019 17:00:00 11,4 2,7 20 11 52 28 NNE 1009,4 60 0,0
10.11.2019 16:00:00 12,6 3,0 21 11 46 25 NNE 1008,8 60 0,0
10.11.2019 15:00:00 13,0 2,8 29 16 47 26 N 1008,5 60 0,0
10.11.2019 14:00:00 13,1 2,6 27 14 45 25 N 1008,7 60 0,0
10.11.2019 13:00:00 12,4 4,1 24 13 43 23 NNW 1008,9 60 0,0
10.11.2019 12:00:00 11,3 5,2 17 9 32 17 NNW 1009,6 60 0,0
10.11.2019 11:00:00 8,1 5,6 14 7 25 13 NNW 1009,6 56 0,0
10.11.2019 10:00:00 7,0 5,5 15 8 27 14 NNW 1009,7 60 0,0
10.11.2019 09:00:00 5,9 5,5 11 6 20 11 NW 1009,7 38 0,0
10.11.2019 08:00:00 4,9 4,6 7 4 14 8 NNW 1009,3 13 0,0
10.11.2019 07:00:00 4,5 4,2 5 3 9 5 NNW 1009,1 2,7 0,0
10.11.2019 06:00:00 5,0 4,6 4 2 8 5 NNE 1009,1 7 0,0
10.11.2019 05:00:00 5,9 5,2 7 4 11 6 ENE 1009,1 20 0,0
10.11.2019 04:00:00 5,9 5,0 7 4 11 6 ENE 1009,1 25 0,0
10.11.2019 03:00:00 6,5 5,4 3 2 8 5 NNW 1009,3 14 0,0
10.11.2019 02:00:00 6,6 4,4 4 2 8 4 E 1009,4 31 0,2
10.11.2019 01:00:00 6,5 4,7 6 4 13 7 SE 1009,7 13 0,6
10.11.2019 00:00:00 7,3 3,7 2 1 9 5 E 1010,2 20 0,0
09.11.2019 23:00:00 6,9 3,0 5 3 9 5 W 1010,0 60 0,0
09.11.2019 22:00:00 4,4 0,9 8 4 10 5 NW 1010,0 57 0,0
09.11.2019 21:00:00 5,6 1,3 5 3 12 6 WNW 1010,4 60 0,0
09.11.2019 20:00:00 6,9 1,6 5 3 12 7 WNW 1010,5 60 0,0
09.11.2019 19:00:00 8,2 1,8 6 3 12 6 W 1010,7 60 0,0
09.11.2019 18:00:00 8,9 1,8 7 4 18 10 W 1010,5 55 0,0
09.11.2019 17:00:00 10,8 1,3 9 5 26 14 NW 1010,6 60 0,0
09.11.2019 16:00:00 12,7 1,1 13 7 32 17 NW 1010,5 60 0,0

tt = Température de l'air
td = dewpoint
ff = Vitesse du vent
fx = gusts
dd = Direction du vent
ppp = reduced air pressure
vv = visibility
rr = Quantités de précipitations

stations d'obs. à proximité